This demonstration page uses our WeatherBlox Daily Observations layout. Learn more.

Hourly Observations for June 23, 2019

Temp ( °F °C ) Dew Point ( °F °C ) Humidity (%) Winds ( mph kmh ) Pressure ( in mb ) Visibility ( mi km ) Precip ( " mm )
12:15 am 00:15 Partly Cloudy 55 12.5 55 12.5 100 100 NW 5 7 29.97 1015 10 16.09344 0 0
12:35 am 00:35 Cloudy 56 13.2 55 13 99 99 WNW 6 9 29.94 1014 10 16.09344 0 0
12:55 am 00:55 Cloudy 56 13.1 55 12.8 98 98 W 6 9 29.94 1014 10 16.09344 0 0
1:15 am 01:15 Cloudy 55 13 55 12.7 98 98 NW 6 9 29.94 1014 10 16.09344 0 0
1:35 am 01:35 Partly Cloudy 55 12.5 54 12.3 99 99 WNW 8 13 29.97 1015 10 16.09344 0 0
1:55 am 01:55 Partly Cloudy 55 12.5 54 12.1 97 97 WNW 9 15 29.94 1014 10 16.09344 0 0
2:15 am 02:15 Clear 54 12.3 54 12 98 98 WNW 9 15 29.97 1015 10 16.09344 0 0
2:35 am 02:35 Clear 54 12.2 53 11.6 96 96 WNW 8 13 29.94 1014 10 16.09344 0 0
2:55 am 02:55 Partly Cloudy 54 12.1 53 11.4 96 96 N 5 7 29.91 1013 10 16.09344 0 0
3:15 am 03:15 Partly Cloudy 53 11.7 52 11.2 97 97 NNW 6 9 29.91 1013 10 16.09344 0 0
3:35 am 03:35 Clear 53 11.6 51 10.8 95 95 N 8 13 29.88 1012 10 16.09344 0 0
3:55 am 03:55 Partly Cloudy 53 11.5 51 10.5 94 94 N 6 9 29.88 1012 10 16.09344 0 0
4:15 am 04:15 Partly Cloudy 52 11.3 51 10.3 94 94 N 3 6 29.88 1012 10 16.09344 0 0
4:35 am 04:35 Partly Cloudy 52 11.2 51 10.6 96 96 NW 6 9 29.91 1013 10 16.09344 0 0
4:55 am 04:55 Mostly Cloudy 53 11.6 51 10.7 94 94 WNW 6 9 29.91 1013 10 16.09344 0 0
5:15 am 05:15 Cloudy 53 11.8 51 10.5 92 92 WNW 8 13 29.91 1013 10 16.09344 0 0
5:35 am 05:35 Cloudy 53 11.8 51 10.5 92 92 WNW 8 13 29.91 1013 10 16.09344 0 0
5:55 am 05:55 Cloudy 54 12 51 10.4 90 90 NNW 6 9 29.91 1013 10 16.09344 0 0
6:15 am 06:15 Cloudy 54 12 51 10.5 91 91 N 6 9 29.85 1011 10 16.09344 0 0
6:35 am 06:35 Mostly Cloudy 54 12 50 10.1 88 88 N 6 9 29.91 1013 10 16.09344 0 0
6:55 am 06:55 Cloudy 54 12.1 50 10.2 88 88 NW 5 7 29.91 1013 10 16.09344 0 0
7:15 am 07:15 Cloudy 54 12 50 10.2 89 89 NNW 8 13 29.85 1011 10 16.09344 0 0
7:35 am 07:35 Cloudy 54 12 50 10.2 89 89 NNW 8 13 29.85 1011 10 16.09344 0 0
7:55 am 07:55 Cloudy with Mist and Fog 53 11.5 51 10.7 95 95 NW 7 11 29.91 1013 4 6.437376 0 0
8:15 am 08:15 Cloudy with Light Drizzle 52 11.1 51 10.7 97 97 NW 8 13 29.91 1013 3 4.828032 0 0
8:35 am 08:35 Cloudy with Light Drizzle 52 11.1 51 10.7 97 97 NW 10 17 29.91 1013 3 4.828032 0 0
8:55 am 08:55 Cloudy with Mist and Fog 53 11.4 52 11.1 98 98 NNW 6 9 29.88 1012 4 6.437376 0 0
9:15 am 09:15 Cloudy with Mist and Fog 54 12 54 12 100 100 N 6 9 29.85 1011 5 8.04672 0 0
9:35 am 09:35 Cloudy 56 13.1 55 13 99 99 N 10 17 29.85 1011 7 11.265408 0 0
9:55 am 09:55 Cloudy 55 13 55 12.6 97 97 NNW 8 13 29.85 1011 10 16.09344 0 0
10:15 am 10:15 Cloudy 56 13.4 55 12.6 95 95 NNW 9 15 29.85 1011 10 16.09344 0 0
10:35 am 10:35 Cloudy 56 13.5 55 12.5 94 94 NNW 10 17 29.85 1011 10 16.09344 0 0
10:55 am 10:55 Cloudy 56 13.5 54 12.3 93 93 NW 9 15 29.85 1011 10 16.09344 0 0
11:15 am 11:15 Cloudy 57 14.1 55 12.5 90 90 NW 9 15 29.88 1012 10 16.09344 0 0
11:35 am 11:35 Cloudy 57 14 55 12.6 91 91 WNW 12 19 29.88 1012 10 16.09344 0 0
11:55 am 11:55 Cloudy 58 14.5 55 12.7 89 89 NNW 8 13 29.88 1012 10 16.09344 0 0
12:15 pm 12:15 Cloudy 59 15.1 53 11.7 80 80 NNW 9 15 29.88 1012 10 16.09344 0 0
12:35 pm 12:35 Cloudy 61 15.9 55 12.5 80 80 NNW 10 17 29.85 1011 10 16.09344 0 0
12:55 pm 12:55 Cloudy 61 16 55 12.7 81 81 NNW 8 13 29.85 1011 10 16.09344 0 0
1:15 pm 13:15 Cloudy 61 16.3 55 12.9 80 80 NNW 8 13 29.83 1010 10 16.09344 0 0
1:35 pm 13:35 Cloudy 63 17.4 56 13.1 76 76 NNE 8 13 29.83 1010 10 16.09344 0 0
1:55 pm 13:55 Cloudy 62 16.9 55 13 78 78 N 7 11 29.83 1010 10 16.09344 0 0
2:15 pm 14:15 Cloudy 63 17.2 56 13.6 80 80 NNW 8 13 29.83 1010 10 16.09344 0 0
2:35 pm 14:35 Cloudy 64 17.5 57 13.9 80 80 N 8 13 29.83 1010 10 16.09344 0 0
2:55 pm 14:55 Cloudy 63 17.3 57 14.1 82 82 N 8 13 29.83 1010 10 16.09344 0 0
3:15 pm 15:15 Cloudy 63 17 57 13.8 82 82 N 10 17 29.83 1010 10 16.09344 0 0
3:35 pm 15:35 Cloudy 62 16.7 57 14.1 85 85 N 8 13 29.83 1010 10 16.09344 0 0
3:55 pm 15:55 Cloudy 62 16.5 57 14 85 85 N 6 9 29.85 1011 10 16.09344 0 0
4:15 pm 16:15 Cloudy with Light Rain 62 16.4 57 13.9 85 85 N 7 11 29.85 1011 10 16.09344 0 0
4:35 pm 16:35 Cloudy with Light Drizzle 60 15.7 58 14.3 91 91 N 12 19 29.85 1011 10 16.09344 0 0
4:55 pm 16:55 Cloudy 59 15.1 56 13.5 90 90 N 15 24 29.88 1012 10 16.09344 0 0
5:15 pm 17:15 Cloudy with Light Rain 58 14.5 55 12.5 88 88 N 13 20 29.88 1012 10 16.09344 0 0
5:35 pm 17:35 Cloudy 59 15.1 55 12.6 85 85 NNE 13 20 29.88 1012 10 16.09344 0 0
5:55 pm 17:55 Cloudy 60 15.5 55 12.6 83 83 NNE 14 22 29.83 1010 10 16.09344 0 0
6:15 pm 18:15 Mostly Cloudy 61 15.9 55 12.5 80 80 N 13 20 29.83 1010 10 16.09344 0 0
6:35 pm 18:35 Sunny 60 15.8 54 12.3 80 80 NNE 8 13 29.83 1010 10 16.09344 0 0
6:55 pm 18:55 Partly Cloudy 60 15.5 54 12.3 81 81 N 9 15 29.88 1012 10 16.09344 0 0
7:15 pm 19:15 Mostly Cloudy 61 16.2 54 12.3 78 78 NW 9 15 29.85 1011 10 16.09344 0 0
7:35 pm 19:35 Cloudy 60 15.3 54 12.1 81 81 NNW 7 11 29.88 1012 10 16.09344 0 0
7:55 pm 19:55 Mostly Cloudy 60 15.4 53 11.8 79 79 N 10 17 29.88 1012 10 16.09344 0 0
8:15 pm 20:15 Partly Cloudy 59 15.1 53 11.8 81 81 NNW 8 13 29.88 1012 10 16.09344 0 0
8:35 pm 20:35 Mostly Cloudy 59 14.8 53 11.6 81 81 NNW 7 11 29.88 1012 10 16.09344 0 0
8:55 pm 20:55 Partly Cloudy 56 13.5 53 11.6 88 88 NNW 5 7 29.88 1012 10 16.09344 0 0
9:15 pm 21:15 Partly Cloudy 54 12.2 53 11.5 96 96 NNW 5 7 29.91 1013 10 16.09344 0 0
9:35 pm 21:35 Cloudy 55 12.5 53 11.6 94 94 WNW 6 9 29.88 1012 10 16.09344 0 0
9:55 pm 21:55 Mostly Cloudy 56 13.1 53 11.5 90 90 NW 10 17 29.88 1012 10 16.09344 0 0
10:15 pm 22:15 Mostly Cloudy 55 13 53 11.6 91 91 NW 9 15 29.88 1012 10 16.09344 0 0
10:35 pm 22:35 Cloudy 56 13.1 53 11.7 91 91 WNW 7 11 29.88 1012 10 16.09344 0 0
10:55 pm 22:55 Cloudy 55 13 53 11.5 91 91 NW 7 11 29.88 1012 10 16.09344 0 0
11:15 pm 23:15 Mostly Cloudy 54 12.2 52 11.2 94 94 WNW 8 13 29.91 1013 10 16.09344 0 0
11:35 pm 23:35 Partly Cloudy 54 12.1 52 11.3 95 95 WNW 8 13 29.91 1013 10 16.09344 0 0
11:55 pm 23:55 Clear 54 12 52 11.3 96 96 WNW 7 11 29.91 1013 10 16.09344 0 0

Powered by AerisWeather